This is the latest recevied weather packets stored in our database for station/object DM4XI-13. If no packets are shown the sender has not sent any weather packets the latest 10 day(s).
| Time | Temp. | Humidity | Pressure | Rain* | Wind** | Luminosity | Snow |
|---|---|---|---|---|---|---|---|
| 1788154759 | 61° F | 97% | 760.3 mmHg | 0 in | 1 mph, 184° | 13 W/m² | - |
| 1788154699 | 61° F | 97% | 760.2 mmHg | 0 in | 1 mph, 182° | 13 W/m² | - |
| 1788154639 | 61° F | 97% | 760.2 mmHg | 0 in | 0 mph | 14 W/m² | - |
| 1788154579 | 61° F | 97% | 760 mmHg | 0 in | 1 mph, 181° | 14 W/m² | - |
| 1788154519 | 61° F | 97% | 760.3 mmHg | 0 in | 1 mph, 179° | 19 W/m² | - |
| 1788154459 | 61° F | 97% | 760.1 mmHg | 0 in | 1 mph, 176° | 25 W/m² | - |
| 1788154400 | 61° F | 97% | 760.1 mmHg | 0 in | 2 mph, 180° | 21 W/m² | - |
| 1788154340 | 61° F | 96% | 760.1 mmHg | 0 in | 1 mph, 177° | 23 W/m² | - |
| 1788154280 | 61° F | 96% | 760.1 mmHg | 0 in | 2 mph, 184° | 23 W/m² | - |
| 1788154219 | 61° F | 96% | 760 mmHg | 0 in | 2 mph, 181° | 25 W/m² | - |
| 1788154159 | 61° F | 96% | 760 mmHg | 0 in | 1 mph, 176° | 22 W/m² | - |
| 1788154099 | 61° F | 96% | 760 mmHg | 0 in | 1 mph, 176° | 19 W/m² | - |
| 1788154039 | 61° F | 96% | 760.1 mmHg | 0 in | 1 mph, 167° | 20 W/m² | - |
| 1788153979 | 60° F | 96% | 760.1 mmHg | 0 in | 0 mph | 20 W/m² | - |
| 1788153919 | 60° F | 96% | 760.2 mmHg | 0 in | 1 mph, 184° | 18 W/m² | - |
| 1788153859 | 60° F | 96% | 760 mmHg | 0 in | 0 mph | 15 W/m² | - |
| 1788153800 | 60° F | 96% | 760.1 mmHg | 0 in | 1 mph, 181° | 14 W/m² | - |
| 1788153739 | 60° F | 96% | 760.2 mmHg | 0 in | 1 mph, 177° | 13 W/m² | - |
| 1788153679 | 60° F | 96% | 760 mmHg | 0 in | 2 mph, 185° | 13 W/m² | - |
| 1788153619 | 60° F | 96% | 760.1 mmHg | 0 in | 1 mph, 177° | 15 W/m² | - |
| 1788153559 | 60° F | 96% | 760.1 mmHg | 0 in | 2 mph, 176° | 15 W/m² | - |
| 1788153499 | 60° F | 96% | 760 mmHg | 0 in | 2 mph, 185° | 14 W/m² | - |
| 1788153439 | 60° F | 96% | 760 mmHg | 0 in | 1 mph, 176° | 13 W/m² | - |
| 1788153379 | 60° F | 96% | 760 mmHg | 0 in | 1 mph, 180° | 12 W/m² | - |
| 1788153319 | 60° F | 96% | 760 mmHg | 0 in | 1 mph, 175° | 11 W/m² | - |
* Rain latest hour (hover to see other rain measurements)
** Current wind speed in m/s (hover to see current wind gust speed)